Probability
0 0 0 0 0 0 0 0 0 0 0 0 0 0 0 0 1 2 2 2 1 0 0 0 0 0 0 0 0 0 0 0 0 0 0 0 0 0 0 0 0 0 0
0 0 0 0 0 0 0 0 0 0 0 0 0 0 0 0 0 1 1 1 0 0 0 0 0 0 0 0 0 0 0 0 0 0 0 0 0 0 0 0 0 0 0
0 0 0 0 0 0 0 0 0 0 0 0 0 0 0 0 0 0 0 0 0 0 0 0 0 0 0 0 0 0 0 0 0 0 0 0 0 0 0 0 0 0 0
0 0 0 0 0 0 0 0 0 0 0 0 0 0 0 0 0 0 0 0 0 0 0 0 0 0 0 0 0 0 0 0 0 0 0 0 0 0 0 0 0 0 0
0 0 0 0 0 0 0 0 0 0 0 0 0 0 0 0 0 0 0 0 0 0 0 0 0 0 0 0 0 0 0 0 0 0 0 0 0 0 0 0 0 0 0
0 0 0 0 0 0 0 0 0 0 0 0 0 0 0 0 0 0 0 0 0 0 0 0 0 0 0 0 0 0 0 0 0 0 0 0 0 0 0 0 0 0 0
0 0 0 0 0 0 0 0 0 0 0 0 0 0 0 0 0 0 0 0 0 0 0 0 0 0 0 0 0 0 0 0 0 0 0 0 0 0 0 0 0 0 0
0 0 0 0 0 0 0 0 0 0 0 0 0 0 0 0 0 0 0 0 0 0 0 0 0 0 0 0 0 0 0 0 0 0 0 0 0 0 0 0 0 0 0
0 0 0 0 0 0 0 0 0 0 0 0 0 0 0 0 0 0 0 0 0 0 0 0 0 0 0 0 0 0 0 0 0 0 0 0 0 0 0 0 0 0 0
0 0 0 0 0 0 0 0 0 0 0 0 0 0 0 0 0 0 0 0 0 0 0 0 0 0 0 0 0 0 0 0 0 0 0 0 0 0 0 0 0 0 0
0 0 0 0 0 0 0 0 0 0 0 0 0 0 0 0 0 0 0 0 0 0 0 0 0 0 0 0 0 0 0 0 0 0 0 0 0 0 0 0 0 0 0
0 0 0 0 0 0 0 0 0 0 0 0 0 0 0 0 0 0 0 0 0 0 0 0 0 0 0 0 0 0 0 0 0 0 0 0 0 0 0 0 0 0 0
0 0 0 0 0 0 0 0 0 0 0 0 0 0 0 0 0 0 0 0 0 0 0 0 0 0 0 0 0 0 0 0 0 0 0 0 0 0 0 0 0 0 0
0 0 0 0 0 0 0 0 0 0 0 0 0 0 0 0 0 0 0 0 0 0 0 0 0 0 0 0 0 0 0 0 0 0 0 0 0 0 0 0 0 0 0
0 0 0 0 0 0 0 0 0 0 0 0 0 0 0 0 0 0 0 0 0 0 0 0 0 0 0 0 0 0 0 0 0 0 0 0 0 0 0 0 0 0 0
0 0 0 0 0 0 0 0 0 0 0 0 0 0 0 0 0 0 0 0 0 0 0 0 0 0 0 0 0 0 0 0 0 0 0 0 0 0 0 0 0 0 0
0 0 0 0 0 0 0 0 0 0 0 0 0 0 0 0 0 0 0 0 0 0 0 0 0 0 0 0 0 0 0 0 0 0 0 0 0 0 0 0 0 0 0
0 0 0 0 0 0 0 0 0 0 0 0 0 0 0 0 0 0 0 0 0 0 0 0 0 0 0 0 0 0 0 0 0 0 0 0 0 0 0 0 0 0 0
0 0 0 0 0 0 0 0 0 0 0 0 0 0 0 0 0 0 0 0 0 0 0 0 0 0 0 0 0 0 0 0 0 0 0 0 0 0 0 0 0 0 0
0 0 0 0 0 0 0 0 0 0 0 0 0 0 0 0 0 0 0 0 0 0 0 0 0 0 0 0 0 0 0 0 0 0 0 0 0 0 0 0 0 0 0
0 0 0 0 0 0 0 0 0 0 0 0 0 0 0 0 0 0 0 0 0 0 0 0 0 0 0 0 0 0 0 0 0 0 0 0 0 0 0 0 0 0 0
0 0 0 0 0 0 0 0 0 0 0 0 0 0 0 0 0 0 0 0 0 0 0 0 0 0 0 0 0 0 0 0 0 0 0 0 0 0 0 0 0 0 0
0 0 0 0 0 0 0 0 0 0 0 0 0 0 0 0 0 0 0 0 0 0 0 0 0 0 0 0 0 0 0 0 0 0 0 0 0 0 0 0 0 0 0
0 0 0 0 0 0 0 0 0 0 0 0 0 0 0 0 0 0 0 0 0 0 0 0 0 0 0 0 0 0 0 0 0 0 0 0 0 0 0 0 0 0 0
0 0 0 0 0 0 0 0 0 0 0 0 0 0 0 0 0 0 0 0 0 0 0 0 0 0 0 0 0 0 0 0 0 0 0 0 0 0 0 0 0 0 0
0 0 0 0 0 0 0 0 0 0 0 0 0 0 0 0 0 0 0 0 0 0 0 0 0 0 0 0 0 0 0 0 0 0 0 0 0 0 0 0 0 0 0
Wind_Speed
8 7 7 6 7 7 6 7 6 6 6 6 6 6 7 7 7 7 7 7 8 7 7 7 6 5 4 3 3 3 3 4 7 4 3 4 4 3 4 4 4 5 5
7 7 7 7 7 7 7 7 6 6 6 6 6 7 8 8 7 8 9 8 8 8 8 8 7 6 5 4 4 4 4 4 7 8 5 3 4 4 4 5 5 6 5
7 7 7 7 7 7 6 6 6 6 6 6 7 7 8 7 8 8 8 8 8 8 8 9 8 7 7 6 6 5 5 5 5 6 5 3 3 3 3 3 3 3 5
7 7 7 6 6 6 5 5 5 6 6 7 7 8 9 10 9 8 8 8 8 9 9 9 9 9 7 6 6 6 5 5 5 5 4 3 2 3 2 2 2 2 3
6 7 6 6 6 6 6 6 6 7 8 7 8 9 9 9 10 9 7 8 7 8 8 8 9 11 12 8 7 5 5 4 4 4 3 3 2 2 1 1 2 1 1
6 6 6 6 6 5 5 6 6 7 7 7 9 9 10 9 13 15 10 7 6 7 6 5 7 9 10 11 12 10 8 5 4 3 3 3 3 2 2 1 1 1 0
6 6 6 6 6 5 6 6 6 6 6 7 7 8 8 11 15 15 13 6 7 7 7 6 7 9 9 6 7 9 9 10 8 5 5 4 4 3 3 3 3 2 0
6 6 6 6 6 5 5 6 5 5 5 6 6 7 7 10 14 14 12 5 6 6 7 7 7 8 9 7 5 6 6 7 7 6 5 5 4 4 4 3 2 1 1
6 5 6 6 6 6 5 5 4 4 5 5 5 6 6 8 12 13 10 3 5 6 8 9 8 8 11 10 5 5 5 4 5 6 5 3 2 2 2 3 3 2 1
5 6 6 5 5 5 4 4 3 3 4 5 5 6 6 6 10 13 11 4 3 4 5 7 11 9 10 10 6 5 5 3 2 1 1 1 2 2 2 1 2 2 2
6 6 5 5 5 5 3 3 3 4 4 4 5 5 5 5 6 10 11 6 4 4 4 4 5 8 9 9 6 4 3 3 3 2 1 1 1 1 1 1 0 1 1
6 6 4 3 4 5 3 3 3 3 3 3 3 4 4 3 4 6 9 9 7 5 4 4 3 5 6 6 4 4 6 5 2 1 1 1 1 1 1 0 1 1 2
6 5 4 4 4 3 2 2 2 2 2 2 2 3 4 3 2 2 4 6 7 4 3 2 2 3 4 3 3 5 5 3 2 2 1 1 1 0 1 2 2 3 4
6 5 3 3 3 2 1 2 2 3 3 2 2 3 3 4 4 3 2 1 1 1 1 2 4 5 4 4 3 3 2 1 1 2 2 1 1 1 1 1 2 2 2
5 4 4 3 4 4 5 5 5 5 5 4 5 5 4 4 3 4 4 4 4 5 5 3 3 3 2 2 2 1 1 1 1 2 2 2 2 2 2 1 2 3 3
4 4 4 4 3 4 5 5 7 5 6 8 7 5 5 5 2 3 5 6 6 7 5 4 3 1 0 1 1 1 1 2 2 2 2 2 2 2 2 2 2 2 3
3 2 2 3 4 4 4 4 4 3 3 3 3 3 3 1 1 3 6 9 9 6 3 3 1 1 1 1 1 2 2 2 1 2 2 2 2 3 3 3 2 3 3
4 3 2 2 2 3 3 4 4 6 5 4 3 4 4 4 4 5 5 6 6 4 3 2 0 0 1 1 2 2 2 1 1 1 2 2 2 3 3 3 2 3 3
4 3 2 2 3 3 3 3 3 4 4 5 6 5 7 7 7 8 5 5 6 3 1 0 1 1 1 1 0 0 0 1 1 1 2 2 2 2 3 3 3 4 4
2 1 1 2 3 3 3 3 3 3 3 4 5 6 6 6 5 6 5 5 4 2 1 1 1 1 1 1 1 1 1 1 1 2 1 1 2 2 3 4 4 4 4
5 5 4 4 4 3 3 2 2 2 2 3 3 4 5 5 5 4 4 3 2 1 1 1 1 2 1 1 1 1 1 2 1 1 2 2 2 3 3 4 4 4 4
5 6 6 6 4 3 2 2 3 2 3 3 4 5 5 4 4 2 1 1 1 1 1 1 2 2 1 1 1 1 2 2 1 1 2 3 3 3 4 4 4 4 4
6 6 6 5 3 2 3 4 4 3 3 3 3 5 5 4 3 2 1 1 1 1 1 2 2 2 1 0 0 1 2 2 1 2 2 3 4 4 4 4 6 6 6
7 7 7 5 5 5 5 5 5 4 4 3 3 3 3 4 3 2 2 2 2 2 3 2 2 3 3 2 2 2 1 1 0 2 3 4 5 5 5 5 6 7 7
8 7 7 6 6 6 6 5 5 5 4 3 3 3 3 3 4 4 3 3 4 4 4 4 3 4 5 5 4 3 3 4 3 2 3 4 6 6 6 7 7 7 8
9 8 7 6 6 6 5 6 5 5 4 4 4 3 3 3 4 3 3 3 4 4 4 4 5 6 6 6 6 6 7 8 7 6 4 4 6 7 7 7 9 9 9
Wind_Direction
61 55 52 52 54 59 56 53 45 44 45 47 49 53 50 46 43 46 51 50 55 54 57 69 73 78 87 95 102 101 98 108 117 117 126 145 157 159 163 178 176 177 179
72 68 59 53 52 56 56 52 47 44 45 48 49 53 56 52 47 50 51 51 54 56 56 62 63 69 74 80 86 96 103 106 122 128 134 151 165 174 177 188 186 180 173
77 76 68 61 57 57 54 50 51 52 49 49 51 52 51 51 51 51 53 53 54 54 54 55 54 56 58 63 75 80 92 103 110 125 134 145 163 181 184 200 189 167 177
80 79 74 66 60 58 56 54 54 57 55 52 51 51 50 45 41 45 56 57 58 59 59 58 54 53 54 59 71 72 85 95 107 119 130 144 151 181 182 181 172 191 186
87 83 80 74 66 60 54 53 54 59 62 56 55 52 51 47 31 27 46 64 63 64 65 71 72 69 65 62 69 64 76 88 102 114 127 130 130 142 173 208 167 180 191
90 91 88 82 77 71 64 56 56 58 60 60 59 56 49 39 22 26 30 46 54 58 63 70 79 66 68 73 76 71 64 70 74 86 98 97 85 64 27 34 77 87 117
94 97 94 89 84 78 76 68 61 60 63 66 70 66 56 32 23 21 21 43 57 54 50 49 59 57 45 49 70 73 62 54 58 73 74 73 70 46 28 28 39 45 309
101 97 93 91 91 87 83 79 69 63 67 69 69 66 58 36 23 17 9 49 60 59 56 56 60 47 31 24 53 68 68 53 52 62 62 59 59 34 16 3 343 338 294
105 104 106 105 100 93 85 81 75 75 79 80 76 70 60 40 23 16 9 51 70 66 61 49 49 48 28 27 45 64 72 71 75 79 77 76 68 48 23 357 351 4 339
113 105 103 102 98 93 90 91 90 88 89 86 79 71 64 51 28 23 14 33 76 91 90 75 55 44 32 30 34 46 50 36 48 89 95 233 228 227 234 279 338 356 3
114 107 102 107 112 106 99 94 93 87 87 94 98 88 72 59 48 34 30 26 19 60 82 76 53 33 32 30 35 44 25 334 313 270 218 190 189 187 205 217 307 31 16
119 114 115 127 121 110 109 108 106 114 119 120 126 119 101 75 46 32 29 31 26 42 58 65 63 27 16 9 15 1 347 335 311 332 45 40 56 52 3 359 289 275 243
123 120 119 108 95 110 132 142 155 174 163 161 156 130 126 123 94 16 9 17 26 35 40 30 359 331 320 302 294 317 328 328 349 20 27 24 34 180 268 277 272 264 263
130 126 124 124 119 108 81 74 63 45 29 23 84 103 108 89 64 23 351 39 9 23 349 298 276 281 282 295 287 271 256 346 10 354 349 340 325 311 295 308 314 303 293
142 147 144 121 102 87 71 51 60 56 50 37 30 40 61 79 53 25 15 16 9 13 335 297 253 233 228 227 229 193 149 90 26 6 358 345 340 341 325 320 313 306 305
154 160 149 142 142 134 123 101 62 80 84 73 64 66 75 89 104 11 3 351 346 351 336 296 293 300 356 36 32 50 74 59 23 355 344 341 338 327 319 314 314 316 319
156 157 163 159 163 163 158 153 146 121 73 62 60 64 81 127 311 322 332 332 314 310 291 281 299 14 13 12 24 38 56 72 12 329 347 344 333 328 330 330 335 335 324
169 167 191 177 174 172 175 177 173 172 175 179 202 222 229 245 266 284 310 321 290 248 242 263 307 42 40 26 29 31 21 13 351 346 349 331 325 324 322 321 322 325 316
191 181 193 191 194 190 198 203 192 187 178 168 165 189 222 238 259 266 270 264 276 283 243 214 45 33 31 26 18 134 287 314 344 316 297 297 308 313 315 318 313 308 296
179 116 241 237 213 202 208 213 202 199 189 174 169 174 182 202 224 232 228 242 259 284 349 41 56 18 339 312 305 291 268 254 254 267 276 294 300 301 305 305 302 300 291
188 177 213 251 244 230 222 222 221 226 203 162 145 143 171 217 228 219 210 217 242 340 14 337 275 238 209 239 293 342 328 312 315 324 328 319 310 302 293 289 292 297 302
201 188 201 226 233 226 242 250 245 236 210 179 160 168 190 236 259 246 211 182 176 202 241 278 300 319 338 331 4 326 310 312 328 343 326 314 303 294 294 296 298 302 304
226 210 206 213 216 188 232 247 245 245 236 219 199 182 188 217 232 236 220 194 193 210 221 228 255 271 282 90 303 283 293 315 341 350 320 302 300 299 299 301 303 303 302
235 221 211 205 208 215 225 234 238 240 239 229 226 216 197 201 223 232 233 222 217 220 226 227 237 251 254 240 242 250 235 188 269 301 300 292 293 293 296 297 296 297 299
246 233 220 212 218 224 224 234 241 241 239 234 232 232 226 218 215 216 217 216 221 227 232 230 227 234 241 245 242 218 177 190 213 248 273 274 279 282 284 287 288 291 293
238 236 235 229 223 227 230 234 237 241 243 242 239 234 238 240 233 228 221 219 226 229 229 229 229 232 234 238 237 221 201 206 215 222 238 259 271 275 280 282 288 289 288